Regional Weather Roundup
Issued by NWS Midland/Odessa, TX

Skip options and go directly to product.
Home | Oldest Version | Previous Version | Current Version | All | Text Only | Save Text | Print | Product List | Glossary On

Skip product version selection by date and time.   
963
ASUS44 KMAF 302010
RWRMAF
MIDLAND AREA WEATHER ROUNDUP
NATIONAL WEATHER SERVICE MIDLAND TX
300 PM CDT SAT MAY 30 2015

...IN SOUTHWEST TEXAS AND SOUTHEAST NEW MEXICO...

CITY           SKY/WX    TMP DP  RH WIND       PRES   REMARKS
ALPINE         MOSUNNY   81  48  31 NE8G22    30.24F
ANDREWS        PTSUNNY   73  59  62 NE9       30.21F
ARTESIA        MOSUNNY   73  55  53 NE10      30.21F
BIG SPRING     CLOUDY    74  61  64 NE9G17    30.21S
CARLSBAD       MOSUNNY   79  55  43 NE8G20    30.17F
DRYDEN           N/A     78  59  51 VRB3      30.11F
FORT STOCKTON  SUNNY     76  57  51 N9        30.17F
GUAD PASS      SUNNY     73  48  41 E23       30.26F
HOBBS          PTSUNNY   72  55  56 N7        30.23F
MARFA          MOSUNNY   81  48  32 NE14G20   30.22F
MIDLAND AIRPK  PTSUNNY   77  58  51 E12G18    30.19F
MIDLAND INTL   PTSUNNY   77  58  51 E10       30.18F
ODESSA         PTSUNNY   76  58  53 NE13      30.19F
PECOS          SUNNY     78  55  44 CALM      30.15F
PRESIDIO       FAIR      88  51  28 NE9       30.06F
SEMINOLE       PTSUNNY   74  58  57 NE9G16    30.23F
SNYDER         CLOUDY    67  59  76 NE10      30.21S
WINK           MOSUNNY   80  55  42 E10       30.16F
$$
...OTHER STATIONS IN TEXAS...

CITY           SKY/WX    TMP DP  RH WIND       PRES   REMARKS
ABILENE        CLOUDY    68  61  78 N8        30.17F
AMARILLO       MOSUNNY   65  51  60 N10       30.26F
AUSTIN         PTSUNNY   85  69  58 N7        30.02F THUNDER
BROWNSVILLE    CLOUDY    85  75  72 SE16      29.98R
CORPUS CHRISTI PTSUNNY   88  74  63 SE13      29.98F
DALLAS FTW     PTSUNNY   73  64  73 N10       30.08S
DEL RIO          N/A    N/A N/A N/A MISG      30.06R
EL PASO        MOSUNNY   85  46  25 E14G23    30.12F
HOUSTON INT    PTSUNNY   89  71  55 VRB6      29.98S
LUBBOCK        CLOUDY    69  58  67 NE13      30.23S
SAN ANGELO     CLOUDY    73  60  63 N7        30.15F
SAN ANTONIO    CLOUDY    87  68  52 SW9       30.02F
WACO           MOSUNNY   82  65  56 NW8G18    30.07F
WICHITA FALLS  NOT AVBL
$$
...OTHER LOCATIONS IN NEW MEXICO...

CITY           SKY/WX    TMP DP  RH WIND       PRES   REMARKS
ALAMAGORDO     MOSUNNY   86  45  23 SW10      30.14F
ALBUQUERQUE    MOSUNNY   76  42  29 SW5       30.24F
CANNON AFB     CLOUDY    67  53  61 VRB6      30.25F
CLOVIS         CLOUDY    66  52  59 E12       30.24F
HOLLOMAN AFB   SUNNY     85  46  25 VRB5      30.12F
ROSWELL        SUNNY     75  56  51 N6        30.20F
RUIDOSO        MOSUNNY   68  46  45 E7        30.34F
SANTA FE       SUNNY     71  40  32 S7        30.29F
TRUTH OR CONSE SUNNY     84  39  20 E9        30.17F
TUCUMCARI      SUNNY     69  51  52 E9        30.24F
$$

USA.gov is the U.S. government's official web portal to all federal, state and local government web resources and services.